Tracking 34348 objects as of 9-Jun-2026
HD Live streaming from Space Station
objects crossing your sky now

QIANFAN-163

Track QIANFAN-163 now!
10-day predictions
QIANFAN-163 is classified as:


NORAD ID: 69325
Int'l Code: 2026-121A
Perigee: 1,027.3 km
Apogee: 1,055.8 km
Inclination: 89.0 °
Period: 105.9 minutes
Semi major axis: 7412 km
RCS: Unknown
Launch date: June 1, 2026
Source: People's Republic of China (PRC)
Launch site: Jiuquan Satellite Launch Center, China (JSC)
Your satellite tracking list
Your tracking list is empty




NASA's NSSDC Master Catalog

Two Line Element Set (TLE):
1 69325U 26121A   26158.95635701  .00000032  00000-0  26363-4 0  9994
2 69325  89.0164 301.4499 0019204 214.2612 145.7307 13.60351269   901
Source of the keplerian elements: AFSPC